This is the latest recevied weather packets stored in our database for station/object W7PLC. If no packets are shown the sender has not sent any weather packets the latest 10 day(s).
| Time | Temp. | Humidity | Pressure | Rain* | Wind** | Luminosity | Snow |
|---|---|---|---|---|---|---|---|
| 1777941126 | 23.89° C | 54% | 1008.7 hPa | 0 mm | - | 265 W/m² | - |
| 1777940821 | 23.89° C | 54% | 1008.7 hPa | 0 mm | - | 270 W/m² | - |
| 1777940519 | 24.44° C | 53% | 1008.5 hPa | 0 mm | - | 246 W/m² | - |
| 1777940216 | 24.44° C | 53% | 1008.5 hPa | 0 mm | - | 275 W/m² | - |
| 1777939914 | 25° C | 52% | 1008.5 hPa | 0 mm | - | 265 W/m² | - |
| 1777939610 | 25° C | 52% | 1008.6 hPa | 0 mm | - | 350 W/m² | - |
| 1777939308 | 25° C | 52% | 1008.6 hPa | 0 mm | - | 309 W/m² | - |
| 1777939004 | 25.56° C | 51% | 1008.5 hPa | 0 mm | - | 368 W/m² | - |
| 1777938701 | 25° C | 52% | 1008.5 hPa | 0 mm | - | 376 W/m² | - |
| 1777938399 | 25.56° C | 50% | 1008.5 hPa | 0 mm | - | 432 W/m² | - |
| 1777938096 | 25.56° C | 49% | 1008.5 hPa | 0 mm | - | 498 W/m² | - |
| 1777937791 | 25.56° C | 50% | 1008.5 hPa | 0 mm | - | 534 W/m² | - |
| 1777937487 | 26.11° C | 50% | 1008.2 hPa | 0 mm | - | 544 W/m² | - |
| 1777937185 | 25.56° C | 50% | 1008.5 hPa | 0 mm | - | 544 W/m² | - |
| 1777936882 | 26.11° C | 51% | 1008.4 hPa | 0 mm | - | 541 W/m² | - |
| 1777936579 | 26.11° C | 49% | 1008.4 hPa | 0 mm | - | 625 W/m² | - |
| 1777936275 | 25.56° C | 49% | 1008.8 hPa | 0 mm | - | 649 W/m² | - |
| 1777935971 | 26.11° C | 48% | 1008.6 hPa | 0 mm | - | 629 W/m² | - |
| 1777935670 | 27.22° C | 47% | 1008.6 hPa | 0 mm | - | 616 W/m² | - |
| 1777935368 | 26.67° C | 48% | 1008.5 hPa | 0 mm | - | 701 W/m² | - |
| 1777935064 | 26.67° C | 47% | 1008.5 hPa | 0 mm | - | 713 W/m² | - |
| 1777934760 | 27.22° C | 46% | 1008.8 hPa | 0 mm | - | 685 W/m² | - |
| 1777934458 | 27.22° C | 46% | 1008.7 hPa | 0 mm | - | 665 W/m² | - |
| 1777934155 | 26.67° C | 46% | 1008.8 hPa | 0 mm | - | 701 W/m² | - |
| 1777933850 | 27.22° C | 47% | 1008.7 hPa | 0 mm | - | 675 W/m² | - |
* Rain latest hour (hover to see other rain measurements)
** Current wind speed in m/s (hover to see current wind gust speed)